Home   Weather   Antofagasta   Past weeks

Flag for Chile Past Weather in Antofagasta, Chile — Yesterday and Last 2 Weeks

Now
66 °F

Passing clouds.


Feels Like: 66 °F
Forecast: 65 / 76 °F
Wind: 12 mph from South

Location: Antofagasta Airport

Current Time: Dec 3, 2016 at 11:05:13 pm

Latest Report: Dec 3, 2016 at 10:00 pm


Visibility: N/A

Pressure: 30.01 "Hg

Humidity: 68%

Dew Point: 55 °F

Location of AntofagastaLocation

Past Weather in Antofagasta — Graph

°F

Antofagasta Temperature Yesterday

Maximum temperature yesterday: 70 °F (at 2:00 pm)
Minimum temperature yesterday: 63 °F (at 12:00 am)
Average temperature yesterday: 66 °F

High & Low Weather Summary for the Past Weeks

 TemperatureHumidityPressure
High72 °F (Nov 21, 2:00 pm)88% (Nov 19, 3:00 am)30.04 "Hg (Nov 19, 3:00 am)
Low57 °F (Nov 24, 7:00 am)50% (Nov 21, 2:00 pm)29.83 "Hg (Nov 29, 6:00 pm)
Average65 °F73%29.96 "Hg
* Reported Nov 18 10:00 pm — Dec 3 10:00 pm, Antofagasta, Weather by CustomWeather, © 2016

Note: Actual official high and low records may vary slightly from our data, if they occured in-between our weather recording intervals... More about our weather records

Advertising

Antofagasta Weather History for the Previous 24 Hours

Scroll right to see more
 ConditionsComfort  
Time TempWeatherWind HumidityBarometerVisibility
10:00 pm
Sat, Dec 3
66 °FPassing clouds.12 mph68%30.01 "HgN/A
9:00 pm66 °FPassing clouds.12 mph68%29.98 "HgN/A
8:00 pm66 °FScattered clouds.12 mph73%29.98 "HgN/A
7:00 pm68 °FScattered clouds.13 mph64%29.95 "HgN/A
6:00 pm68 °FSunny.15 mph64%29.95 "Hg10 mi
5:00 pm70 °FScattered clouds.15 mph60%29.95 "HgN/A
4:00 pm70 °FSunny.15 mph53%29.98 "Hg10 mi
3:00 pm70 °FScattered clouds.15 mph53%29.98 "HgN/A
2:00 pm70 °FScattered clouds.16 mph53%30.01 "HgN/A
1:00 pm72 °FPartly sunny.16 mph53%30.01 "HgN/A
12:00 pm70 °FPartly sunny.15 mph57%30.01 "HgN/A
11:00 am68 °FPartly sunny.10 mph60%30.01 "HgN/A
10:00 am68 °FScattered clouds.9 mph60%30.01 "HgN/A
9:00 am66 °FPartly sunny.3 mph68%30.01 "HgN/A
8:00 am64 °FPartly sunny.3 mph73%30.01 "HgN/A
7:00 am64 °FOvercast.2 mph73%30.01 "HgN/A
6:00 am64 °FOvercast.2 mph73%30.01 "HgN/A
5:00 am64 °FOvercast.2 mph73%30.01 "HgN/A
4:00 am63 °FOvercast.3 mph77%30.01 "HgN/A
3:00 am63 °FPassing clouds.2 mph77%30.01 "HgN/A
2:00 am63 °FPassing clouds.5 mph83%30.04 "HgN/A
1:00 am63 °FPassing clouds.7 mph83%30.01 "HgN/A
12:00 am64 °FPassing clouds.8 mph83%30.01 "HgN/A
11:00 pm
Fri, Dec 2
64 °FPassing clouds.9 mph83%30.01 "HgN/A
Weather by CustomWeather, © 2016

See weather overviewHow to use our weather pages